[[{"header":{"parameterUnit":"m.s-1","parameterCategory":1,"la1":30.2991,"la2":30.254,"lo1":-89.0895,"lo2":-89.0444,"dy":0.0017,"dx":0.0017,"nx":28,"ny":28,"refTime":"2024-05-17T03:00:00:Z","depth":0,"parameterNumber":2,"parameterNumberName":"U-component_of_WINDS"},"data":[0,0,0,0,0,0,0,0,0,0,0,0,0,0,0,0,0,0,0,0,0,0,0,0,0,0,0,0,0,0,0,0,0,0,0,0,0,0,0,0,0,0,0,0,0,0,0,0,0,0,0,0,0,0,0,0,0,0,0.1639,0.1638,0,0.1477,0.1475,0.1474,0.1357,0.1356,0.1355,0.1354,0.1183,0.1179,0.1176,0,0,0,0,0,0,0,0,0,0,0,0,0,0.1844,0.184,0.1639,0.1637,0.1635,0.1478,0.1475,0.1473,0.1357,0.1356,0.1354,0.1353,0.1184,0.118,0.1175,0,0,0,0,0,0,0,0,0,0,0,0,0,0.1726,0.1839,0.164,0.1558,0.1549,0.1478,0.1475,0.1472,0.1357,0.1356,0.1354,0.1353,0.1186,0.118,0.1175,0.117,0,0,0.1158,0.1156,0,0,0,0,0,0,0,0,0.1732,0.1718,0.1572,0.1564,0.1554,0.1436,0.1485,0.1371,0.1357,0.143,0.1354,0.1352,0.1268,0.1256,0.1228,0.1162,0.1155,0.1158,0.1154,0.1152,0.115,0,0,0,0,0,0,0,0.1741,0.1724,0.1575,0.157,0.1559,0.1528,0.151,0.1463,0.1359,0.1423,0.1415,0.1397,0.1262,0.1234,0.1223,0.1152,0.1158,0.1153,0.115,0.1147,0.1073,0.1074,0,0,0,0,0,0,0.1762,0.1732,0.158,0.157,0.1642,0.1526,0.1505,0.1475,0.1359,0.134,0.1399,0.1392,0.1244,0.123,0.1217,0.1203,0.1152,0.1147,0.1144,0.1072,0.1073,0.1075,0,0,0,0,0,0,0.1767,0.175,0.1587,0.1649,0.1626,0.1524,0.1491,0.1473,0.1444,0.134,0.1321,0.1389,0.1242,0.1225,0.1183,0.1196,0.1144,0.1139,0.107,0.1072,0.1074,0.1177,0,0,0,0,0,0,0.1774,0.1752,0.175,0.165,0.1623,0.1557,0.1492,0.147,0.1435,0.1425,0.1326,0.1308,0.124,0.1192,0.1177,0.1187,0.1135,0.1069,0.1071,0.1073,0.1172,0.1182,0.1191,0,0,0,0,0,0.1781,0.1785,0.1751,0.1733,0.1619,0.1558,0.1542,0.1465,0.1437,0.1433,0.1367,0.1311,0.1197,0.1188,0.1171,0.118,0.1067,0.107,0.1073,0.1167,0.118,0.119,0,0,0,0,0,0,0.1888,0.177,0.1731,0.1702,0.1642,0.1539,0.1532,0.1481,0.1426,0.1419,0.1324,0.1302,0.127,0.122,0.1213,0.1169,0.1125,0.1125,0.1202,0.1213,0.1223,0.1235,0.1131,0,0,0,0,0,0.1908,0.1871,0.1769,0.1753,0.1725,0.1634,0.1605,0.1551,0.1483,0.1456,0.1386,0.1322,0.1271,0.1239,0.1187,0.1164,0.114,0.1161,0.1171,0.1179,0.118,0.1164,0.1172,0.1084,0.1084,0.1084,0,0,0.1949,0.188,0.1862,0.1773,0.1719,0.1681,0.1613,0.1575,0.1545,0.1449,0.1406,0.1353,0.1274,0.1242,0.1224,0.12,0.1199,0.1183,0.119,0.1186,0.1168,0.1176,0.1183,0.1086,0.1086,0.1086,0,0,0.2005,0.195,0.1931,0.1879,0.1799,0.1739,0.1735,0.1639,0.1601,0.1557,0.1484,0.1446,0.1361,0.1308,0.127,0.1307,0.1253,0.1292,0.1341,0.1327,0.1334,0.1339,0.1352,0.1358,0.1293,0.1293,0.1293,0,0.2066,0.2007,0.1927,0.1894,0.1857,0.177,0.175,0.1702,0.1609,0.1585,0.1559,0.1451,0.1391,0.1345,0.1355,0.1327,0.1318,0.1303,0.134,0.1344,0.1348,0.1359,0.1365,0.1299,0.1298,0.1297,0.1297,0,0.2086,0.2046,0.204,0.1955,0.1916,0.189,0.1804,0.1775,0.1725,0.1667,0.1622,0.1548,0.148,0.1465,0.1414,0.1412,0.1399,0.1358,0.1312,0.1363,0.1372,0.1376,0.1306,0.1304,0.1303,0.1301,0,0,0.2203,0.2075,0.2074,0.2034,0.194,0.1907,0.1876,0.1811,0.1788,0.1726,0.1697,0.1628,0.1589,0.1546,0.1489,0.1476,0.151,0.1436,0.1433,0.1452,0.1502,0.1534,0.154,0.1474,0.1475,0.1475,0.1509,0,0.2244,0.2186,0.2114,0.208,0.2042,0.1959,0.1932,0.1871,0.1817,0.1775,0.1713,0.1666,0.1619,0.1592,0.1576,0.151,0.1519,0.1506,0.1445,0.1444,0.1468,0.1545,0.1578,0.1613,0.1512,0.1512,0.1512,0,0.2284,0.2229,0.2193,0.2103,0.2084,0.2062,0.1996,0.1958,0.1886,0.1847,0.18,0.1739,0.1701,0.1661,0.1606,0.1599,0.157,0.1534,0.1533,0.1524,0.1481,0.1537,0.1622,0.1628,0.1517,0.1517,0.1516,0,0.2373,0.229,0.2258,0.2226,0.2121,0.2107,0.2062,0.1989,0.1955,0.1897,0.1873,0.1811,0.1777,0.1729,0.1653,0.1631,0.1606,0.156,0.1572,0.1574,0.157,0.1571,0.1651,0.1552,0.1552,0.1552,0.1552,0,0.2427,0.2407,0.2297,0.2277,0.2252,0.2168,0.2146,0.2093,0.2029,0.1996,0.1921,0.1891,0.1792,0.175,0.1689,0.1653,0.1638,0.1604,0.1589,0.1611,0.1616,0.159,0.1586,0.1553,0.1553,0.1552,0.1552,0,0.2522,0.2447,0.2406,0.2311,0.2286,0.2272,0.2189,0.2166,0.2107,0.2067,0.2052,0.1959,0.1906,0.1825,0.1747,0.1707,0.168,0.1654,0.1705,0.1696,0.1712,0.1712,0.1779,0.1783,0.1682,0.1683,0.1684,0,0.2561,0.2544,0.2448,0.2421,0.238,0.2338,0.2303,0.222,0.2186,0.2104,0.209,0.2032,0.1981,0.1899,0.1824,0.1764,0.1735,0.1763,0.1726,0.1749,0.1735,0.1737,0.1735,0.1772,0.1773,0.1775,0.1776,0,0.2638,0.2602,0.2555,0.2497,0.2458,0.2407,0.2352,0.2334,0.2238,0.2204,0.215,0.2111,0.2032,0.1975,0.1905,0.1856,0.18,0.1788,0.1788,0.181,0.1841,0.1824,0.1729,0.1787,0.1786,0.1785,0.1784,0.1784,0.2705,0.2687,0.2617,0.2568,0.2518,0.2469,0.2443,0.2382,0.2336,0.2267,0.222,0.2169,0.2097,0.1998,0.1952,0.191,0.1885,0.1885,0.1884,0.1885,0.1894,0.1848,0.1896,0.1896,0.1895,0.1895,0.1895,0,0.2778,0.2729,0.2685,0.2612,0.2573,0.2526,0.2463,0.2433,0.239,0.2329,0.2281,0.2219,0.2163,0.2084,0.2022,0.2003,0.1975,0.1989,0.1989,0.1979,0.1919,0.1926,0.2012,0.2012,0.2012,0.2012,0.2012,0.2012,0.2811,0.2778,0.2734,0.2676,0.2626,0.2577,0.2545,0.2499,0.245,0.2385,0.2339,0.2289,0.222,0.2152,0.2098,0.2076,0.2057,0.2079,0.2049,0.1994,0.1983,0.1973,0.1979,0.2075,0.2075,0.2112,0.2112,0.2113]},{"header":{"parameterUnit":"m.s-1","parameterCategory":1,"la1":30.2991,"la2":30.254,"lo1":-89.0895,"lo2":-89.0444,"dy":0.0017,"dx":0.0017,"nx":28,"ny":28,"refTime":"2024-05-17T03:00:00:Z","depth":0,"parameterNumber":3,"parameterNumberName":"V-component_of_WINDS"},"data":[0,0,0,0,0,0,0,0,0,0,0,0,0,0,0,0,0,0,0,0,0,0,0,0,0,0,0,0,0,0,0,0,0,0,0,0,0,0,0,0,0,0,0,0,0,0,0,0,0,0,0,0,0,0,0,0,0,0,7.3067,7.3069,0,7.3245,7.3247,7.3249,7.3263,7.3261,7.3259,7.3258,7.3429,7.3435,7.3442,0,0,0,0,0,0,0,0,0,0,0,0,0,7.273,7.2736,7.3067,7.3069,7.3072,7.3245,7.3247,7.3249,7.3264,7.3261,7.3259,7.3257,7.3427,7.3435,7.3442,0,0,0,0,0,0,0,0,0,0,0,0,0,7.2889,7.2738,7.3067,7.31,7.3104,7.3244,7.3247,7.325,7.3264,7.3261,7.3258,7.3256,7.3425,7.3434,7.3443,7.3559,0,0,7.3472,7.3476,0,0,0,0,0,0,0,0,7.288,7.2901,7.3093,7.3098,7.3103,7.3229,7.3191,7.3353,7.3265,7.3203,7.3258,7.3254,7.3364,7.3379,7.3418,7.3567,7.3574,7.3473,7.3479,7.3483,7.3486,0,0,0,0,0,0,0,7.2869,7.2893,7.3137,7.3095,7.3102,7.3102,7.3122,7.3222,7.3297,7.3208,7.321,7.3231,7.3366,7.3409,7.3422,7.3577,7.3473,7.3481,7.3487,7.3491,7.3829,7.3832,0,0,0,0,0,0,7.2853,7.2884,7.3131,7.3142,7.2983,7.3111,7.3133,7.3191,7.3296,7.331,7.3233,7.3231,7.3394,7.3411,7.3428,7.357,7.3483,7.3492,7.3497,7.3826,7.383,7.3834,0,0,0,0,0,0,7.2846,7.2875,7.3124,7.3014,7.3046,7.312,7.3186,7.3196,7.3239,7.3315,7.3328,7.3263,7.3392,7.3415,7.3527,7.3576,7.3496,7.3505,7.3822,7.3827,7.3832,7.3856,0,0,0,0,0,0,7.2836,7.2872,7.2919,7.3015,7.3052,7.3223,7.3189,7.3202,7.3256,7.3255,7.3347,7.3359,7.3392,7.3513,7.3536,7.3588,7.3512,7.3818,7.3824,7.383,7.3851,7.3861,7.3869,0,0,0,0,0,7.2824,7.2916,7.2921,7.2951,7.3112,7.3226,7.3247,7.3286,7.326,7.3307,7.3356,7.3356,7.3568,7.3524,7.3551,7.3606,7.3815,7.3823,7.383,7.3847,7.3859,7.3869,0,0,0,0,0,0,7.282,7.2929,7.2936,7.3063,7.3136,7.3228,7.3288,7.3297,7.3375,7.3371,7.3412,7.3433,7.3544,7.3586,7.3536,7.3723,7.3688,7.3701,7.3692,7.3704,7.3713,7.37,7.352,0,0,0,0,0,7.2835,7.2921,7.3011,7.3114,7.315,7.3213,7.3264,7.3288,7.3363,7.3393,7.345,7.352,7.3603,7.3656,7.3736,7.3857,7.3877,7.3908,7.3918,7.3925,7.3935,7.4002,7.4017,7.3858,7.3858,7.3858,0,0,7.2864,7.2935,7.2986,7.3115,7.3174,7.326,7.3238,7.333,7.3393,7.3405,7.3516,7.3561,7.3642,7.3759,7.3814,7.3798,7.3984,7.3935,7.394,7.3946,7.4011,7.4026,7.404,7.3863,7.3862,7.3861,0,0,7.2962,7.3025,7.3118,7.3179,7.327,7.3311,7.3334,7.3426,7.3457,7.357,7.3581,7.3655,7.3796,7.3854,7.3901,7.4023,7.4025,7.4047,7.4095,7.416,7.4173,7.4184,7.4226,7.4241,7.4058,7.4058,7.4058,0,7.2986,7.3119,7.3163,7.3256,7.3312,7.3332,7.3425,7.348,7.3591,7.3627,7.3609,7.3788,7.3843,7.3975,7.4005,7.4043,7.4067,7.4036,7.4168,7.418,7.4191,7.4232,7.4248,7.406,7.406,7.4059,7.4059,0,7.3144,7.3236,7.33,7.3411,7.3474,7.3566,7.3622,7.3679,7.3698,7.3741,7.3854,7.3922,7.4017,7.405,7.4067,7.4183,7.4171,7.416,7.4125,7.4207,7.4246,7.4262,7.4063,7.4062,7.4061,7.4061,0,0,7.3242,7.338,7.3402,7.3453,7.3556,7.3626,7.3718,7.3815,7.3863,7.3939,7.4015,7.4135,7.4127,7.4181,7.4205,7.4262,7.4353,7.4244,7.4246,7.4261,7.4484,7.4491,7.4508,7.4356,7.4359,7.4362,7.4477,0,7.3351,7.3521,7.3564,7.3706,7.3791,7.3811,7.3891,7.3961,7.4004,7.4079,7.4124,7.4209,7.4191,7.4224,7.4281,7.433,7.4398,7.4322,7.4425,7.4428,7.4403,7.4529,7.4537,7.4642,7.4492,7.4495,7.4497,0,7.3501,7.3585,7.3737,7.383,7.3867,7.3939,7.403,7.4103,7.4182,7.4209,7.4271,7.429,7.4384,7.4345,7.4474,7.4421,7.4466,7.4496,7.4501,7.4511,7.4467,7.4541,7.4676,7.4692,7.4521,7.452,7.4518,0,7.3557,7.3707,7.3818,7.3861,7.3972,7.4022,7.407,7.4147,7.4202,7.4281,7.4317,7.4404,7.4451,7.4517,7.4559,7.4527,7.4683,7.4649,7.4706,7.4705,7.4736,7.4734,7.488,7.4767,7.4767,7.4766,7.4766,0,7.3674,7.3765,7.3845,7.3913,7.4016,7.4063,7.4163,7.4211,7.4279,7.4354,7.4376,7.4445,7.4496,7.4572,7.4604,7.4705,7.4726,7.4748,7.4756,7.4746,7.4743,7.4775,7.4768,7.4771,7.477,7.4769,7.4768,0,7.3753,7.381,7.3932,7.4029,7.4055,7.4127,7.4208,7.4273,7.4317,7.4412,7.4436,7.4503,7.4594,7.4642,7.4754,7.4776,7.4889,7.4892,7.4863,7.4866,7.492,7.4914,7.5091,7.5116,7.4987,7.4988,7.4989,0,7.3823,7.3895,7.4001,7.4055,7.4105,7.4191,7.4249,7.4298,7.4356,7.4453,7.4505,7.4598,7.4675,7.4817,7.4874,7.4959,7.4964,7.502,7.4977,7.4965,7.4964,7.4959,7.4965,7.5027,7.5028,7.5029,7.503,0,7.3942,7.3967,7.4052,7.4146,7.4216,7.4291,7.4366,7.4408,7.4468,7.4532,7.4627,7.4687,7.4803,7.4894,7.4984,7.5029,7.5039,7.5044,7.5061,7.5052,7.5032,7.5042,7.4883,7.5039,7.5038,7.5037,7.5037,7.5037,7.4019,7.4084,7.4169,7.4262,7.4324,7.4394,7.446,7.4514,7.4595,7.4696,7.4719,7.4819,7.4895,7.5018,7.5066,7.5143,7.5131,7.5157,7.5163,7.5168,7.517,7.5021,7.5159,7.5159,7.5159,7.5158,7.5158,0,7.4138,7.4194,7.428,7.4386,7.4458,7.4466,7.4549,7.4608,7.4697,7.4769,7.4846,7.4954,7.5042,7.5106,7.5196,7.5244,7.5251,7.5266,7.5262,7.5272,7.5176,7.5151,7.5259,7.5259,7.5259,7.5259,7.5259,7.5259,7.4208,7.4319,7.4355,7.4495,7.455,7.4651,7.4698,7.4761,7.482,7.4941,7.5016,7.5059,7.5128,7.5223,7.5303,7.5319,7.535,7.5365,7.5381,7.529,7.5279,7.5269,7.5246,7.5372,7.5372,7.5471,7.5472,7.5473]}]]